Weather History for Massena, NY

Change the Weather History Date:

Wednesday, October 17, 2012

  Actual Average Record
Temperature  
Mean Temperature 44 °F 46 °F  
Max Temperature 61 °F 56 °F 77 °F (1968)
Min Temperature 27 °F 36 °F 20 °F (1978)
Degree Days  
Heating Degree Days 21 19  
Month to date heating degree days 252 277  
Since 1 July heating degree days 469 577  
Cooling Degree Days 0 0  
Month to date cooling degree days 0 0  
Year to date cooling degree days 537 361  
Moisture  
Dew Point 33 °F    
Average Humidity 73    
Maximum Humidity 100    
Minimum Humidity 46    
Precipitation  
Precipitation 0.02 in 0.10 in 0.91 in (1948)
Month to date precipitation 2.01 1.86  
Year to date precipitation 24.53 28.05  
Sea Level Pressure  
Sea Level Pressure 29.93 in    
Wind  
Wind Speed 1 mph (ENE)    
Max Wind Speed 9 mph    
Max Gust Speed 12 mph    
Visibility 7 miles    
Events Fog , Rain    
T = Trace of Precipitation, MM = Missing Value Source: NWS Daily Summary

Daily Weather History Graph

Daily Weather History Graph

Search for Another Location

Airport:

Trip Planner

Search our weather history database for the weather conditions in past years. The results will help you decide how hot, cold, wet, or windy it might be!

Date:

Astronomy

Oct. 17, 2012 Rise Set
Actual Time 7:18 AM EDT 6:10 PM EDT
Civil Twilight 6:48 AM EDT 6:39 PM EDT
Nautical Twilight 6:14 AM EDT 7:13 PM EDT
Astronomical Twilight 5:40 AM EDT 7:47 PM EDT
Moon 9:57 AM EDT 7:35 PM EDT
Length of Visible Light 11h 51m
Length of Day
10h 52m
Waxing Crescent, 7% of the Moon is Illuminated
Oct 17
Waxing Crescent
Oct 21
First Quarter
Oct 29
Full
Nov 6
Last Quarter
Nov 13
New

Hourly Weather History & Observations

Time (EDT) Temp. Dew Point Humidity Pressure Visibility Wind Dir Wind Speed Gust Speed Precip Events Conditions
12:00 AM 30.2 °F 28.4 °F 93% 29.91 in 1.5 mi Calm Calm - N/A   Scattered Clouds
12:07 AM 28.4 °F 28.4 °F 100% 29.90 in 1.2 mi Calm Calm - N/A   Scattered Clouds
12:09 AM 28.4 °F 28.4 °F 100% 29.90 in 2.0 mi Calm Calm - N/A   Scattered Clouds
12:18 AM 28.4 °F 28.4 °F 100% 29.90 in 3.0 mi Calm Calm - N/A   Partly Cloudy
12:31 AM 28.4 °F 26.6 °F 93% 29.91 in 2.0 mi Calm Calm - N/A   Partly Cloudy
12:40 AM 28.4 °F 26.6 °F 93% 29.91 in 8.0 mi Calm Calm - N/A   Partly Cloudy
12:53 AM 28.9 °F 27.0 °F 92% 29.93 in 10.0 mi Calm Calm - N/A   Partly Cloudy
1:53 AM 28.0 °F 27.0 °F 96% 29.94 in 10.0 mi Calm Calm - N/A   Partly Cloudy
2:43 AM 28.4 °F 26.6 °F 93% 29.94 in 1.8 mi Calm Calm - N/A   Partly Cloudy
2:53 AM 28.0 °F 27.0 °F 96% 29.95 in 3.0 mi Calm Calm - N/A   Clear
3:10 AM 26.6 °F 26.6 °F 100% 29.93 in 1.8 mi Calm Calm - N/A   Clear
3:12 AM 26.6 °F 26.6 °F 100% 29.93 in 1.0 mi Calm Calm - N/A   Mist
3:19 AM 26.6 °F 26.6 °F 100% 29.94 in 0.5 mi Calm Calm - N/A Fog Light Freezing Fog
3:25 AM 28.4 °F 26.6 °F 93% 29.94 in 1.2 mi Calm Calm - N/A   Partly Cloudy
3:28 AM 28.4 °F 26.6 °F 93% 29.94 in 2.0 mi Calm Calm - N/A   Partly Cloudy
3:38 AM 28.4 °F 26.6 °F 93% 29.94 in 8.0 mi Calm Calm - N/A   Mostly Cloudy
3:53 AM 28.9 °F 28.0 °F 96% 29.95 in 10.0 mi Calm Calm - N/A   Overcast
4:53 AM 30.9 °F 28.9 °F 92% 29.96 in 10.0 mi Calm Calm - N/A   Overcast
5:53 AM 30.9 °F 30.0 °F 96% 29.97 in 10.0 mi Calm Calm - N/A   Scattered Clouds
6:53 AM 30.0 °F 28.0 °F 92% 29.97 in 10.0 mi Calm Calm - N/A   Clear
7:36 AM 28.4 °F 28.4 °F 100% 29.96 in 2.0 mi Calm Calm - N/A   Clear
7:46 AM 28.4 °F 28.4 °F 100% 29.96 in 8.0 mi Calm Calm - N/A   Clear
7:53 AM 30.0 °F 28.9 °F 96% 29.98 in 6.0 mi Calm Calm - N/A   Clear
8:53 AM 37.9 °F 35.1 °F 89% 29.98 in 10.0 mi Calm Calm - N/A   Clear
9:53 AM 46.9 °F 39.0 °F 74% 29.97 in 10.0 mi Calm Calm - N/A   Clear
10:53 AM 52.0 °F 39.0 °F 61% 29.98 in 10.0 mi SSW 3.5 mph - N/A   Clear
11:53 AM 53.1 °F 39.0 °F 59% 29.96 in 10.0 mi Calm Calm - N/A   Overcast
12:53 PM 55.9 °F 39.0 °F 53% 29.94 in 10.0 mi Variable 3.5 mph - N/A   Partly Cloudy
1:53 PM 59.0 °F 39.0 °F 48% 29.91 in 10.0 mi Calm Calm - N/A   Clear
2:53 PM 60.1 °F 39.0 °F 46% 29.90 in 10.0 mi North 3.5 mph - N/A   Overcast
3:53 PM 57.9 °F 39.0 °F 49% 29.90 in 10.0 mi NE 4.6 mph - N/A   Overcast
4:53 PM 55.9 °F 39.9 °F 55% 29.90 in 10.0 mi ENE 5.8 mph - N/A   Overcast
5:53 PM 53.1 °F 39.9 °F 61% 29.91 in 10.0 mi East 4.6 mph - N/A   Overcast
6:53 PM 51.1 °F 41.0 °F 68% 29.91 in 10.0 mi East 4.6 mph - N/A   Overcast
7:53 PM 52.0 °F 41.0 °F 66% 29.92 in 10.0 mi Calm Calm - N/A   Mostly Cloudy
8:53 PM 51.1 °F 39.9 °F 66% 29.91 in 10.0 mi ENE 3.5 mph - N/A   Clear
9:53 PM 50.0 °F 39.9 °F 68% 29.91 in 10.0 mi Calm Calm - N/A   Scattered Clouds
10:53 PM 48.9 °F 41.0 °F 74% 29.91 in 10.0 mi Calm Calm - N/A   Mostly Cloudy
11:53 PM 48.9 °F 43.0 °F 80% 29.92 in 10.0 mi Calm Calm - 0.00 in Rain Light Rain